Anoka County, MN

3:59 AM CST on January 24, 2018 (GMT -0600)
Anoka County / Blaine Airport

Weather History for KANE - December, 2012

Change the Weather History Date:

Saturday, December 15, 2012

  Actual Average Record
Temperature  
Mean Temperature 36 °F -  
Max Temperature 39 °F 27 °F 51 °F (2014)
Min Temperature 33 °F 12 °F -9 °F (2008)
Degree Days  
Heating Degree Days 29    
Moisture  
Dew Point 35 °F    
Average Humidity 93    
Maximum Humidity 100    
Minimum Humidity 70    
Precipitation  
Precipitation 0.00 in - - ()
Sea Level Pressure  
Sea Level Pressure 29.61 in    
Wind  
Wind Speed 6 mph (East)    
Max Wind Speed 12 mph    
Max Gust Speed -    
Visibility 4 miles    
Events Fog , Rain    
Averages and records for this station are not official NWS values.
T = Trace of Precipitation, MM = Missing Value Source: NWS Daily Summary

Daily Weather History Graph

Daily Weather History Graph

Search for Another Location

Airport or City:

Trip Planner

Search our weather history database for the weather conditions in past years. The results will help you decide how hot, cold, wet, or windy it might be!

Date:

Astronomy

Dec. 15, 2012 Rise Set
Actual Time 7:45 AM CST 4:31 PM CST
Civil Twilight 7:11 AM CST 5:05 PM CST
Nautical Twilight 6:33 AM CST 5:42 PM CST
Astronomical Twilight 5:58 AM CST 6:18 PM CST
Moon 9:33 AM CST (12/15) 7:42 PM CST (12/15)
Length of Visible Light 9h 54m
Length of Day
8h 46m
Waxing Crescent, 8% of the Moon is Illuminated
Dec 15
Waxing Crescent
Dec 19
First Quarter
Dec 28
Full
Jan 4
Last Quarter
Jan 11
New

Hourly Weather History & Observations

Time (CST) Temp. Windchill Dew Point Humidity Pressure Visibility Wind Dir Wind Speed Gust Speed Precip Events Conditions
12:21 AM 37.4 °F 32.1 °F 30.2 °F 75% 29.79 in 10.0 mi East 6.9 mph - N/A   Overcast
12:41 AM 37.4 °F 32.8 °F 30.2 °F 75% 29.77 in 10.0 mi East 5.8 mph - N/A   Overcast
1:01 AM 39.2 °F 35.0 °F 30.2 °F 70% 29.77 in 10.0 mi East 5.8 mph - N/A   Overcast
1:21 AM 39.2 °F 33.0 °F 30.2 °F 70% 29.76 in 10.0 mi East 9.2 mph - N/A   Overcast
2:01 AM 39.2 °F 33.6 °F 32.0 °F 75% 29.73 in 10.0 mi East 8.1 mph - N/A   Overcast
2:41 AM 39.2 °F 32.5 °F 32.0 °F 75% 29.73 in 10.0 mi ESE 10.4 mph - N/A   Overcast
3:01 AM 37.4 °F 29.8 °F 33.8 °F 87% 29.73 in 4.0 mi ESE 11.5 mph - N/A   Overcast
3:41 AM 37.4 °F 32.1 °F 35.6 °F 93% 29.71 in 5.0 mi East 6.9 mph - N/A   Overcast
4:21 AM 37.4 °F 31.4 °F 35.6 °F 93% 29.69 in 7.0 mi East 8.1 mph - N/A   Overcast
5:21 AM 37.4 °F 31.4 °F 35.6 °F 93% 29.66 in 2.5 mi East 8.1 mph - N/A   Overcast
5:41 AM 37.4 °F 32.8 °F 35.6 °F 93% 29.66 in 2.5 mi East 5.8 mph - N/A   Overcast
6:41 AM 35.6 °F 29.9 °F 35.6 °F 100% 29.63 in 2.0 mi East 6.9 mph - N/A   Overcast
6:45 AM 35.6 °F 29.9 °F 35.6 °F 100% 29.63 in 2.0 mi East 6.9 mph - N/A   Light Drizzle
7:50 AM 35.6 °F 29.9 °F 35.6 °F 100% 29.61 in 2.0 mi East 6.9 mph - N/A Rain Rain
8:50 AM 37.4 °F 32.1 °F 35.6 °F 93% 29.60 in 2.0 mi East 6.9 mph - N/A Rain Rain
9:45 AM 37.4 °F 31.4 °F 37.4 °F 100% 29.58 in 2.5 mi East 8.1 mph - N/A Rain Light Rain
10:55 AM 37.4 °F 32.1 °F 37.4 °F 100% 29.56 in 3.0 mi East 6.9 mph - N/A Rain Light Rain
11:55 AM 37.4 °F 32.1 °F 37.4 °F 100% 29.54 in 3.0 mi East 6.9 mph - N/A Rain Light Rain
12:55 PM 37.4 °F 32.8 °F 35.6 °F 93% 29.52 in 5.0 mi East 5.8 mph - N/A   Light Drizzle
1:50 PM 37.4 °F 32.1 °F 35.6 °F 93% 29.51 in 2.0 mi East 6.9 mph - N/A   Overcast
2:50 PM 35.6 °F 31.7 °F 35.6 °F 100% 29.50 in 2.0 mi ENE 4.6 mph - N/A   Overcast
3:50 PM 35.6 °F - 35.6 °F 100% 29.50 in 0.5 mi Calm Calm - N/A Fog Fog
4:50 PM 35.6 °F - 35.6 °F 100% 29.51 in 0.5 mi Calm Calm - N/A Fog Fog
5:45 PM 35.6 °F - 35.6 °F 100% 29.51 in 0.2 mi Calm Calm - N/A Fog Fog
6:45 PM 35.6 °F 32.8 °F 35.6 °F 100% 29.52 in 0.2 mi NNW 3.5 mph - N/A   Drizzle
7:45 PM 35.6 °F - 35.6 °F 100% 29.53 in 0.5 mi Calm Calm - N/A Rain Light Rain
8:55 PM 35.6 °F 31.7 °F 35.6 °F 100% 29.53 in 0.8 mi WNW 4.6 mph - N/A   Light Drizzle
9:01 PM 35.6 °F 31.7 °F 35.6 °F 100% 29.53 in 0.8 mi WNW 4.6 mph - N/A   Overcast
9:21 PM 35.6 °F 30.7 °F 35.6 °F 100% 29.53 in 1.5 mi WNW 5.8 mph - N/A   Overcast
9:50 PM 35.6 °F 30.7 °F 35.6 °F 100% 29.53 in 3.0 mi WNW 5.8 mph - N/A   Overcast
10:21 PM 33.8 °F 28.6 °F 33.8 °F 100% 29.54 in 2.0 mi WNW 5.8 mph - N/A   Overcast
11:21 PM 33.8 °F 28.6 °F 33.8 °F 100% 29.54 in 2.5 mi West 5.8 mph - N/A   Overcast